Regional Weather Roundup
Issued by NWS

Home | Current Version | Previous Version | Graphics & Text | Print | Product List | Glossary On
Versions: 1 2 3 4 5 6 7 8 9 10 11 12 13 14 15 16 17 18 19 20 21 22 23 24 25 26 27 28 29 30 31 32 33 34 35 36 37 38 39 40 41 42 43 44 45 46 47 48 49 50
000
ASUS43 KBIS 201510
RWRND

NORTH DAKOTA REGIONAL WEATHER ROUNDUP
NATIONAL WEATHER SERVICE BISMARCK ND
900 AM CST THU NOV 20 2014

NOTE: "FAIR" INDICATES FEW OR NO CLOUDS BELOW 12,000 FEET WITH NO
SIGNIFICANT WEATHER AND/OR OBSTRUCTIONS TO VISIBILITY.


NDZ001>003-009>011-017-201600-
NORTHWEST NORTH DAKOTA

CITY           SKY/WX    TMP DP  RH WIND       PRES   REMARKS
WILLISTON      CLOUDY    12   6  77 S3        30.03S
MINOT          FAIR       7   2  80 SW6       30.06S WCI  -3
MINOT AFB      MOCLDY    10   6  83 W3        30.06S
$$

NDZ018>021-031>035-040>046-201600-
SOUTHWEST NORTH DAKOTA

CITY           SKY/WX    TMP DP  RH WIND       PRES   REMARKS
BISMARCK       CLOUDY    15   9  76 CALM      30.11R
DICKINSON      LGT SNOW  10   6  84 S5        29.98S FOG     WCI   2
GARRISON         N/A     13   9  84 N5        30.05F WCI   5
HETTINGER ARPT FOG       14  12  92 S5        30.02R VSB 1   WCI   6
$$

NDZ004>008-012>016-024-026-027-054-201600-
NORTHEAST NORTH DAKOTA

CITY           SKY/WX    TMP DP  RH WIND       PRES   REMARKS
GRAND FORKS    CLEAR      7   0  73 NW6       30.13R WCI  -3
DEVILS LAKE    PTCLDY     5  -4  66 NW3       30.06R
$$

NDZ022-023-025-028>030-036>039-047>053-201600-
SOUTHEAST NORTH DAKOTA

CITY           SKY/WX    TMP DP  RH WIND       PRES   REMARKS
FARGO          SUNNY      9   1  70 W7        30.14R WCI  -2
JAMESTOWN      PTCLDY     7   2  80 NW7       30.10R WCI  -5
$$




USA.gov is the U.S. government's official web portal to all federal, state and local government web resources and services.